Theta_e
328 331 332 332 331 333 334 335 337 340 344 347 348 350 358 354 353 352 350 347 346 350 348 347 348 347 346 346 345 347 347 347 348 348 348 348 347 348 349 349 349 348 347 347
329 331 331 333 333 334 333 335 337 338 342 344 343 348 355 353 352 351 347 347 349 348 347 346 346 346 347 347 346 346 347 347 348 348 348 348 349 349 350 352 352 352 351 351
329 331 331 334 333 334 332 334 335 338 343 341 345 348 354 352 350 348 348 348 349 349 349 348 347 347 347 347 346 346 346 348 347 348 348 350 352 353 353 354 354 354 354 352
327 327 331 330 332 332 333 333 334 338 342 344 341 346 350 347 349 349 353 351 349 352 352 350 348 347 344 347 346 347 346 346 347 348 349 349 352 353 353 356 357 358 356 355
328 326 327 329 330 331 332 332 334 337 333 328 334 345 346 342 346 352 353 353 351 350 352 349 350 347 347 348 346 347 348 348 349 349 350 351 352 353 358 359 358 357 356 354
323 323 325 324 326 327 329 331 328 326 326 329 333 341 343 345 347 349 353 353 348 348 347 342 340 342 344 349 346 351 351 353 353 352 354 354 356 360 357 357 356 354 353 353
321 323 323 325 325 324 328 325 330 332 331 331 331 336 346 341 342 346 356 353 343 342 343 342 341 339 345 344 350 353 356 355 356 357 357 358 362 359 357 356 355 354 353 352
322 324 324 325 324 324 324 327 330 334 332 333 339 343 349 344 347 348 350 347 343 342 343 342 342 342 344 339 340 342 335 343 358 356 360 361 359 357 354 354 353 352 352 352
319 322 322 325 325 328 327 331 327 326 328 338 343 348 349 351 353 351 350 348 348 345 344 343 347 346 344 339 339 344 337 335 342 356 358 355 353 351 348 347 345 343 344 346
319 322 322 323 324 325 330 328 335 329 337 349 350 350 344 356 357 352 351 350 349 347 346 346 349 346 344 336 336 338 336 339 342 344 342 342 341 340 339 338 337 335 335 337
316 319 323 323 323 323 321 328 325 327 334 346 351 349 342 352 355 353 352 348 345 354 351 352 345 338 337 336 336 335 339 339 340 339 338 337 334 332 332 331 329 328 329 329
317 316 321 321 320 321 324 326 327 330 332 340 340 342 342 346 349 348 350 345 349 349 348 346 342 342 342 342 342 341 339 339 335 333 331 330 328 328 327 326 325 324 323 323
316 315 320 322 318 323 329 329 326 328 331 343 340 341 342 343 349 348 350 345 347 346 345 342 339 337 337 338 337 337 336 333 331 328 327 325 324 323 323 323 323 323 323 322
323 313 318 321 319 330 336 332 330 328 332 337 342 345 347 347 349 347 343 343 345 346 342 338 336 335 335 335 336 334 330 329 326 326 324 322 322 322 322 323 323 322 321 321
317 318 321 321 321 334 336 334 331 331 330 337 339 344 346 345 346 347 349 351 347 347 342 338 334 333 334 334 332 329 326 326 324 323 321 321 321 322 322 321 321 321 320 320
315 322 334 337 335 336 337 334 332 333 336 340 341 344 340 341 343 344 349 351 347 347 343 340 334 334 332 330 326 324 323 322 321 320 320 321 321 321 321 320 319 319 319 318
318 330 329 334 336 335 337 338 335 338 337 339 340 338 338 343 346 344 347 351 347 345 343 334 332 330 330 327 324 322 321 320 320 320 320 319 319 319 319 319 318 317 317 316
319 326 325 332 333 339 332 335 335 339 342 339 344 344 339 342 342 340 342 347 345 343 335 330 328 328 326 324 322 320 319 319 319 319 318 318 319 319 317 317 315 314 315 315
317 324 330 336 337 336 338 335 339 340 347 343 347 353 352 347 343 343 345 342 339 332 328 327 327 324 323 321 320 319 318 318 318 318 318 318 317 317 316 315 313 313 313 313
318 317 326 334 339 341 335 335 336 339 354 346 351 353 350 347 350 344 339 332 329 329 327 324 322 323 322 321 320 319 317 318 318 319 319 318 317 316 315 315 314 313 313 312
320 323 329 338 339 338 334 336 335 339 339 347 350 350 348 347 342 335 329 328 329 325 322 320 322 323 322 321 321 318 317 319 319 319 319 319 318 316 314 312 313 313 312 310
318 325 331 338 340 340 334 336 342 337 340 348 347 346 344 334 332 329 328 327 323 320 319 320 321 322 322 322 321 317 317 319 319 320 317 318 319 317 316 315 312 313 313 311
339 328 333 336 336 330 331 335 331 336 346 347 344 339 334 333 330 328 326 322 320 318 318 318 319 321 322 322 319 317 318 318 318 319 316 313 316 314 313 314 312 312 313 314
339 335 336 335 337 336 333 334 333 337 338 340 337 334 332 330 326 321 318 317 316 316 315 317 320 321 321 319 318 318 318 317 317 315 315 315 314 314 314 314 313 314 314 313
337 337 337 337 337 336 336 338 338 337 335 335 333 332 330 325 320 317 315 314 314 314 316 317 318 317 316 315 315 316 316 315 316 315 315 316 314 313 313 314 314 314 312 313
336 336 335 336 333 332 335 337 336 337 336 333 332 330 327 322 318 314 313 313 313 314 314 315 316 316 315 313 313 313 312 312 312 312 312 312 311 311 311 312 310 309 310 310
Wind_Speed
4 5 6 7 6 4 2 4 7 9 8 9 15 6 20 17 14 12 11 10 11 19 20 17 23 25 29 27 31 33 33 33 32 32 30 30 30 28 25 24 26 22 28 28
4 4 8 2 2 3 2 5 12 8 6 15 8 5 17 18 19 13 10 9 11 5 5 8 18 21 29 32 33 35 36 36 33 32 29 26 21 22 26 24 25 21 25 22
6 7 5 2 6 6 3 4 9 8 5 4 7 3 7 8 4 6 7 11 9 10 9 7 12 23 25 32 33 35 35 36 33 30 30 26 21 19 22 22 20 18 19 18
5 5 5 5 7 5 8 3 10 4 5 4 3 3 7 5 9 11 12 14 15 9 7 11 9 9 25 31 26 29 31 33 30 26 28 28 23 22 25 21 19 17 16 16
8 3 1 5 9 5 12 7 9 13 6 5 1 5 5 5 6 7 13 17 15 1 9 15 10 15 7 10 16 23 28 31 29 25 24 24 22 26 25 16 15 15 14 13
6 1 2 5 3 5 9 7 5 4 4 3 4 4 3 4 8 4 8 10 8 8 9 8 14 13 14 20 10 16 26 27 24 21 19 17 19 16 12 11 12 11 10 9
8 7 4 2 7 2 4 6 3 4 5 5 5 5 6 9 4 2 10 9 9 9 8 6 5 3 7 18 25 6 14 25 18 14 15 15 14 12 12 12 12 12 13 13
6 7 6 3 7 8 5 8 5 5 4 3 5 3 1 5 4 7 8 10 8 4 1 8 4 7 1 14 35 20 36 39 7 5 4 4 7 7 8 8 10 12 12 12
5 7 3 3 2 5 3 3 3 7 3 4 2 1 2 3 3 6 5 10 7 7 8 9 7 7 5 10 26 21 10 29 37 5 4 2 3 4 8 11 11 14 15 14
6 5 5 6 1 2 5 4 3 3 4 2 4 3 5 4 7 6 6 7 9 6 4 5 6 6 2 11 17 15 22 16 20 12 14 15 15 12 12 13 14 15 14 15
7 4 8 2 3 5 4 1 5 6 4 5 4 6 5 9 11 12 9 10 4 6 2 0 6 14 16 15 9 11 26 13 8 9 10 13 13 12 13 15 16 16 15 16
9 6 8 11 6 5 5 8 8 4 4 2 4 5 4 10 10 6 10 5 4 7 5 8 12 14 17 14 16 18 20 16 8 11 12 14 13 15 16 17 16 16 17 18
8 1 4 11 8 2 4 2 4 6 4 6 6 4 3 4 5 5 5 7 7 10 8 10 12 13 18 21 26 24 22 17 12 11 14 14 16 17 16 15 16 17 18 19
11 5 8 9 9 3 4 2 3 6 4 6 5 7 6 10 9 8 5 4 7 9 7 8 7 7 13 18 20 21 19 15 13 15 16 18 17 15 15 14 15 17 19 20
9 9 6 6 6 5 3 5 6 5 7 8 7 10 16 20 15 14 7 6 11 11 9 6 6 8 14 19 19 18 16 15 14 15 15 13 12 14 14 14 17 16 17 19
5 6 5 4 3 4 3 4 4 2 4 7 7 0 7 6 9 8 10 9 10 11 10 8 10 13 15 19 19 18 17 14 11 14 13 13 12 11 13 17 18 18 18 20
3 7 4 5 2 4 2 3 2 3 2 8 7 8 8 7 14 15 12 10 11 9 8 8 9 15 21 22 20 18 15 13 15 15 13 12 14 15 16 15 16 19 20 21
4 2 3 4 3 3 5 2 5 7 1 4 7 8 14 11 5 8 7 7 10 9 9 11 15 19 22 21 19 17 15 16 16 16 15 16 14 13 14 14 18 18 18 20
7 6 4 5 3 3 2 3 8 7 4 6 12 9 8 10 6 5 6 5 6 7 12 18 21 24 23 19 17 17 17 17 19 18 15 15 13 12 12 13 16 18 19 21
5 5 5 3 5 6 8 3 6 5 0 6 9 16 18 10 4 4 6 7 9 17 21 22 23 22 20 16 16 17 14 12 12 11 10 9 9 9 8 8 10 14 16 17
4 4 7 3 2 6 5 5 5 7 7 11 14 19 17 6 4 9 11 10 18 20 23 24 21 20 18 15 13 14 10 10 7 5 3 3 3 4 5 9 7 11 15 16
5 6 4 4 4 3 7 3 11 7 3 18 14 17 12 9 15 16 14 14 17 19 21 24 23 20 15 13 12 10 9 7 5 4 4 2 0 2 4 6 8 9 12 14
1 5 4 7 8 4 8 6 5 6 14 11 16 9 13 17 16 16 13 13 15 19 21 22 23 18 15 12 10 10 8 5 4 1 1 2 1 3 4 4 7 9 11 12
1 5 3 1 4 4 8 4 5 7 8 12 11 19 19 18 17 16 12 11 13 17 21 22 21 20 17 10 8 7 4 4 3 1 1 4 7 7 8 8 8 12 14 15
3 2 2 3 3 7 7 6 12 14 17 18 14 18 20 20 16 16 12 10 16 20 22 21 20 18 14 9 8 6 4 2 1 2 4 6 8 10 11 13 15 14 15 14
4 5 4 5 4 3 5 7 12 18 19 21 23 15 12 17 18 15 11 18 22 24 23 19 16 14 11 7 6 6 3 2 3 4 3 4 6 6 7 7 9 10 12 10
Wind_Direction
353 53 257 243 199 195 256 218 226 231 217 181 208 163 180 190 199 197 192 204 205 203 209 207 213 215 216 215 214 212 217 222 226 227 230 234 245 251 251 251 254 260 256 253
12 232 253 259 271 292 3 311 291 276 183 183 153 210 184 185 204 192 177 191 201 152 154 172 198 214 213 211 214 213 219 222 224 232 231 234 243 257 261 264 270 261 260 264
179 238 19 358 319 356 319 216 284 252 75 37 114 30 171 209 209 181 166 195 199 177 163 174 176 202 210 214 215 218 221 227 229 234 237 242 249 262 271 274 283 284 274 275
236 263 236 284 278 124 293 216 275 208 111 197 121 243 222 179 204 170 172 191 202 173 167 194 197 202 194 213 223 219 230 230 236 237 238 242 245 261 272 284 289 297 295 297
231 178 175 240 237 152 254 260 263 263 151 100 5 100 266 152 186 184 186 196 204 175 24 26 19 7 340 306 246 229 237 234 236 242 246 247 252 263 274 283 293 298 297 303
219 288 183 233 314 203 264 306 40 38 84 66 215 142 343 220 210 189 189 201 86 97 75 27 346 355 346 358 297 236 232 234 233 242 247 245 253 281 301 304 306 308 317 327
332 290 273 187 314 24 105 60 317 2 14 211 309 68 230 289 331 201 169 124 118 133 163 162 193 320 354 22 27 336 292 230 218 233 250 244 264 284 295 309 315 323 330 337
183 311 192 170 189 221 230 156 167 190 203 239 328 46 271 300 356 78 115 130 147 134 302 232 224 107 89 72 60 45 11 1 230 227 216 247 281 316 346 352 350 359 359 358
156 263 281 170 243 134 275 203 202 107 22 83 278 89 33 331 52 33 77 112 152 184 217 246 18 41 116 139 90 81 3 332 333 55 101 89 67 59 60 54 44 33 23 24
223 288 239 278 152 285 168 165 52 354 131 136 299 210 209 200 147 163 186 168 196 177 259 284 251 126 62 83 95 132 154 281 308 76 87 86 80 67 55 46 34 22 13 8
148 139 260 172 195 223 338 4 31 115 106 150 166 260 186 179 185 186 194 197 117 114 212 15 58 72 78 84 108 59 185 200 264 89 76 66 59 50 41 33 23 14 6 6
193 164 242 235 242 239 199 211 167 136 216 104 143 263 150 181 183 166 193 161 124 76 49 76 85 74 86 113 122 125 134 178 133 88 78 63 45 34 33 29 23 13 13 10
172 246 277 306 350 358 221 163 134 119 93 187 145 231 218 142 145 220 206 118 95 85 85 77 83 84 103 115 127 135 134 122 110 89 65 54 44 34 32 30 26 23 19 16
135 141 165 215 215 182 312 217 182 121 120 165 215 144 181 172 179 192 208 162 112 98 106 107 106 121 131 127 124 121 114 110 92 68 58 46 36 29 31 30 29 22 18 16
142 197 170 228 227 170 219 251 187 181 166 149 205 185 181 184 176 186 169 153 132 130 136 147 133 133 127 113 108 104 98 81 67 60 53 49 44 43 36 33 27 22 20 16
299 201 137 203 232 217 231 22 114 83 130 78 100 164 115 118 129 151 170 163 149 151 161 150 137 134 126 122 121 117 109 97 78 69 64 52 45 41 26 25 20 15 14 9
139 144 106 213 163 131 16 182 136 117 74 144 147 213 146 157 166 174 169 167 159 160 158 122 130 132 130 132 135 117 103 90 80 74 65 53 41 38 28 17 12 13 11 9
178 89 93 140 98 190 235 215 210 126 80 149 113 148 176 175 117 135 145 155 153 161 122 122 129 130 133 132 118 107 94 82 78 66 55 46 37 34 36 27 22 11 12 12
177 134 80 126 155 267 234 175 149 141 213 211 137 125 111 101 86 69 151 142 138 123 123 135 142 138 138 124 110 92 77 72 69 59 51 34 43 45 42 35 30 32 29 22
79 65 113 124 136 185 227 202 137 99 193 183 145 138 139 153 123 224 157 119 106 112 125 129 136 136 121 112 90 75 74 78 72 53 43 43 38 49 44 33 14 13 17 18
55 25 147 141 136 288 238 208 152 102 225 147 159 153 160 159 181 142 124 103 118 125 126 135 134 126 119 114 99 81 89 90 83 60 38 30 15 42 38 32 12 1 11 19
177 139 161 106 110 189 172 41 165 172 182 154 162 163 143 106 118 118 118 119 123 127 128 132 124 125 127 122 105 96 101 93 75 71 64 64 140 350 338 343 354 352 350 360
200 172 197 174 203 224 174 195 189 137 146 159 150 145 126 134 128 122 125 127 130 126 129 132 126 130 139 135 124 117 115 92 57 72 158 46 335 329 334 316 331 329 329 332
247 42 219 72 262 237 137 65 97 118 120 140 137 139 142 135 129 120 123 121 122 131 133 135 133 133 142 143 144 132 120 96 68 185 280 300 300 309 312 314 314 313 317 315
208 14 323 285 341 68 26 121 117 111 115 111 118 138 141 129 122 125 128 132 137 136 143 143 139 141 145 143 137 130 125 119 152 294 312 300 312 312 304 307 311 315 325 310
181 186 178 226 238 136 189 125 128 125 128 127 123 121 130 133 131 132 132 140 141 146 148 140 141 146 151 153 139 134 133 183 284 311 302 318 322 319 333 324 341 354 357 357